User: anonymous
Location: Goheenville
(40.9070°N, 79.3720°W)
Time: 08:00:02
(UTC-04:00)
Language:

NOAA 11 - Orbit

View from above orbital plane
View from above orbital plane
View from above satellite
View from above satellite

Ground track
Ground track

The orbit data is extracted from the following two-line orbital elements,

1 19531U 88089A   14292.24459775  .00000099  00000-0  73118-4 0    86
2 19531 098.6722 007.7387 0010224 305.2019 054.8197 14.15101801345284
Epoch (UTC): 19 October 2014 05:52:13
Eccentricity: 0.0010224
inclination: 98.6722°
perigee height: 834 km
apogee height: 849 km
right ascension of ascending node: 7.7387°
argument of perigee: 305.2019°
revolutions per day: 14.15101801
mean anomaly at epoch: 54.8197°
orbit number at epoch: 34528

The dashed part of the orbit path shows where the satellite is in the earth's shadow,  

DLR